When you browse on this site, cookies collect data to enhance your experience and personalize the content and advertising you see.
Visit our Privacy Policy to learn more. By continuing to use the site, you agree to this use of cookies and data.
  • In Österreich
  • Länderverzeichnis
  • Für 7 Tage
  • Wassertemperatur
  • Wetterkarte
  • News
  • Widgets
  • user-avatar
    Anmelden

    Stündliche Wetter Sumgayit

    Heute, 13 Dezember, Freitag

    Zeit Temperatur Niederschläge Wind Luftdruck Luftfeuchtigkeit
    00:00 +7°C° 0.1 mm 2 m/S 741 mmHg 86%
    01:00 +7°C° 0.2 mm 2 m/S 741 mmHg 86%
    02:00 +7°C° 0.2 mm 2 m/S 741 mmHg 86%
    03:00 +8°C° 0 mm 1 m/S 741 mmHg 87%
    04:00 +7°C° 0.4 mm 2 m/S 741 mmHg 88%
    05:00 +7°C° 0.4 mm 2 m/S 740 mmHg 89%
    06:00 +7°C° 0.4 mm 2 m/S 740 mmHg 89%
    07:00 +8°C° 0.7 mm 2 m/S 741 mmHg 89%
    08:00 +8°C° 0.7 mm 2 m/S 741 mmHg 89%
    09:00 +8°C° 0.7 mm 3 m/S 741 mmHg 88%
    10:00 +8°C° 0.4 mm 3 m/S 741 mmHg 88%
    11:00 +7°C° 0.4 mm 4 m/S 740 mmHg 87%
    12:00 +7°C° 0.4 mm 4 m/S 740 mmHg 87%
    13:00 +7°C° 0.3 mm 4 m/S 740 mmHg 87%
    14:00 +7°C° 0.3 mm 4 m/S 740 mmHg 88%
    15:00 +8°C° 0.3 mm 4 m/S 740 mmHg 88%
    16:00 +7°C° 0.1 mm 4 m/S 740 mmHg 89%
    17:00 +7°C° 0.1 mm 4 m/S 740 mmHg 90%
    18:00 +7°C° 0.1 mm 4 m/S 740 mmHg 90%
    19:00 +7°C° 0.2 mm 4 m/S 740 mmHg 91%
    20:00 +7°C° 0.2 mm 4 m/S 740 mmHg 91%
    21:00 +7°C° 0.2 mm 4 m/S 741 mmHg 91%
    22:00 +7°C° 0 mm 4 m/S 741 mmHg 90%
    23:00 +7°C° 0 mm 4 m/S 740 mmHg 89%

    Morgen, 14 Dezember, Samstag

    Zeit Temperatur Niederschläge Wind Luftdruck Luftfeuchtigkeit
    00:00 +7°C° 0 mm 4 m/S 740 mmHg 89%
    01:00 +7°C° 0 mm 4 m/S 740 mmHg 86%
    02:00 +7°C° 0 mm 4 m/S 740 mmHg 83%
    03:00 +7°C° 0 mm 4 m/S 741 mmHg 79%
    04:00 +7°C° 0 mm 4 m/S 741 mmHg 78%
    05:00 +6°C° 0 mm 4 m/S 741 mmHg 76%
    06:00 +6°C° 0 mm 4 m/S 741 mmHg 74%
    07:00 +6°C° 0 mm 5 m/S 741 mmHg 72%
    08:00 +6°C° 0 mm 5 m/S 741 mmHg 69%
    09:00 +7°C° 0 mm 5 m/S 742 mmHg 66%
    10:00 +7°C° 0 mm 6 m/S 741 mmHg 64%
    11:00 +8°C° 0 mm 6 m/S 741 mmHg 62%
    12:00 +9°C° 0 mm 7 m/S 741 mmHg 60%
    13:00 +9°C° 0 mm 7 m/S 741 mmHg 60%
    14:00 +9°C° 0 mm 6 m/S 741 mmHg 60%
    15:00 +9°C° 0 mm 6 m/S 741 mmHg 60%
    16:00 +8°C° 0 mm 5 m/S 741 mmHg 63%
    17:00 +8°C° 0 mm 4 m/S 741 mmHg 66%
    18:00 +7°C° 0 mm 4 m/S 742 mmHg 69%
    19:00 +8°C° 0 mm 3 m/S 742 mmHg 69%
    20:00 +8°C° 0 mm 3 m/S 742 mmHg 69%
    21:00 +7°C° 0 mm 3 m/S 742 mmHg 69%
    22:00 +7°C° 0 mm 3 m/S 742 mmHg 70%
    23:00 +7°C° 0 mm 3 m/S 742 mmHg 71%

    übermorgen, 15 Dezember, Sonntag

    Zeit Temperatur Niederschläge Wind Luftdruck Luftfeuchtigkeit
    00:00 +7°C° 0 mm 3 m/S 742 mmHg 72%
    01:00 +7°C° 0 mm 3 m/S 741 mmHg 74%
    02:00 +7°C° 0 mm 3 m/S 741 mmHg 75%
    03:00 +7°C° 0 mm 3 m/S 741 mmHg 76%
    04:00 +7°C° 0 mm 3 m/S 741 mmHg 75%
    05:00 +7°C° 0 mm 3 m/S 741 mmHg 74%
    06:00 +5°C° 0 mm 3 m/S 741 mmHg 73%
    07:00 +7°C° 0 mm 3 m/S 741 mmHg 69%
    08:00 +8°C° 0 mm 3 m/S 741 mmHg 66%
    09:00 +8°C° 0 mm 2 m/S 742 mmHg 62%
    10:00 +9°C° 0 mm 3 m/S 741 mmHg 59%
    11:00 +10°C° 0 mm 3 m/S 741 mmHg 56%
    12:00 +11°C° 0 mm 3 m/S 741 mmHg 53%
    13:00 +11°C° 0 mm 3 m/S 741 mmHg 54%
    14:00 +11°C° 0 mm 3 m/S 741 mmHg 55%
    15:00 +11°C° 0 mm 3 m/S 741 mmHg 56%
    16:00 +10°C° 0 mm 2 m/S 742 mmHg 61%
    17:00 +10°C° 0 mm 1 m/S 742 mmHg 65%
    18:00 +9°C° 0 mm 1 m/S 742 mmHg 70%
    19:00 +9°C° 0 mm 1 m/S 742 mmHg 74%
    20:00 +7°C° 0 mm 2 m/S 743 mmHg 78%
    21:00 +7°C° 0 mm 2 m/S 743 mmHg 82%
    22:00 +7°C° 0 mm 2 m/S 743 mmHg 84%
    23:00 +7°C° 0 mm 2 m/S 743 mmHg 86%

    16 Dezember, Montag

    Zeit Temperatur Niederschläge Wind Luftdruck Luftfeuchtigkeit
    00:00 +7°C° 0 mm 2 m/S 743 mmHg 88%
    01:00 +7°C° 0 mm 2 m/S 743 mmHg 88%
    02:00 +7°C° 0 mm 2 m/S 744 mmHg 88%
    03:00 +7°C° 0 mm 2 m/S 744 mmHg 88%
    04:00 +6°C° 0 mm 2 m/S 744 mmHg 88%
    05:00 +6°C° 0 mm 2 m/S 744 mmHg 88%
    06:00 +6°C° 0 mm 2 m/S 745 mmHg 88%
    07:00 +7°C° 0 mm 2 m/S 745 mmHg 85%
    08:00 +7°C° 0 mm 2 m/S 746 mmHg 82%
    09:00 +8°C° 0 mm 2 m/S 746 mmHg 78%
    10:00 +9°C° 0 mm 2 m/S 746 mmHg 73%
    11:00 +10°C° 0 mm 1 m/S 746 mmHg 68%
    12:00 +11°C° 0 mm 1 m/S 746 mmHg 63%
    13:00 +10°C° 0 mm 2 m/S 746 mmHg 63%
    14:00 +10°C° 0 mm 2 m/S 746 mmHg 64%
    15:00 +10°C° 0 mm 3 m/S 746 mmHg 65%
    16:00 +9°C° 0 mm 3 m/S 746 mmHg 72%
    17:00 +8°C° 0 mm 3 m/S 746 mmHg 79%
    18:00 +7°C° 0 mm 3 m/S 747 mmHg 86%
    19:00 +7°C° 0 mm 2 m/S 747 mmHg 88%
    20:00 +7°C° 0 mm 2 m/S 747 mmHg 90%
    21:00 +6°C° 0 mm 2 m/S 747 mmHg 91%
    22:00 +6°C° 0 mm 2 m/S 747 mmHg 91%
    23:00 +5°C° 0 mm 3 m/S 748 mmHg 91%

    17 Dezember, Dienstag

    Zeit Temperatur Niederschläge Wind Luftdruck Luftfeuchtigkeit
    00:00 +5°C° 0 mm 3 m/S 748 mmHg 91%
    01:00 +5°C° 0 mm 3 m/S 748 mmHg 90%
    02:00 +5°C° 0 mm 4 m/S 748 mmHg 90%
    03:00 +5°C° 0 mm 4 m/S 748 mmHg 90%
    04:00 +5°C° 0 mm 4 m/S 748 mmHg 90%
    05:00 +4°C° 0 mm 3 m/S 748 mmHg 89%
    06:00 +5°C° 0 mm 2 m/S 748 mmHg 89%
    07:00 +5°C° 0 mm 3 m/S 748 mmHg 86%
    08:00 +5°C° 0 mm 4 m/S 749 mmHg 84%
    09:00 +6°C° 0 mm 5 m/S 749 mmHg 81%
    10:00 +6°C° 0 mm 5 m/S 749 mmHg 78%
    11:00 +7°C° 0 mm 5 m/S 749 mmHg 75%
    12:00 +7°C° 0 mm 5 m/S 749 mmHg 72%
    13:00 +8°C° 0 mm 4 m/S 749 mmHg 72%
    14:00 +8°C° 0 mm 4 m/S 749 mmHg 72%
    15:00 +8°C° 0 mm 4 m/S 749 mmHg 71%
    16:00 +8°C° 0 mm 3 m/S 749 mmHg 76%
    17:00 +7°C° 0 mm 2 m/S 749 mmHg 82%
    18:00 +7°C° 0 mm 2 m/S 749 mmHg 87%
    19:00 +6°C° 0 mm 2 m/S 749 mmHg 88%
    20:00 +7°C° 0 mm 1 m/S 749 mmHg 90%
    21:00 +7°C° 0 mm 1 m/S 749 mmHg 92%
    22:00 +6°C° 0 mm 1 m/S 749 mmHg 92%
    23:00 +6°C° 0 mm 1 m/S 749 mmHg 92%

    18 Dezember, Mittwoch

    Zeit Temperatur Niederschläge Wind Luftdruck Luftfeuchtigkeit
    00:00 +5°C° 0 mm 0 m/S 749 mmHg 92%
    01:00 +5°C° 0 mm 0 m/S 749 mmHg 92%
    02:00 +6°C° 0 mm 1 m/S 749 mmHg 92%
    03:00 +5°C° 0 mm 1 m/S 748 mmHg 92%
    04:00 +5°C° 0 mm 1 m/S 748 mmHg 92%
    05:00 +5°C° 0 mm 1 m/S 748 mmHg 91%
    06:00 +5°C° 0 mm 1 m/S 748 mmHg 91%
    07:00 +6°C° 0 mm 1 m/S 748 mmHg 87%
    08:00 +7°C° 0 mm 1 m/S 749 mmHg 84%
    09:00 +7°C° 0 mm 2 m/S 749 mmHg 80%
    10:00 +8°C° 0 mm 2 m/S 749 mmHg 75%
    11:00 +9°C° 0 mm 2 m/S 748 mmHg 69%
    12:00 +10°C° 0 mm 2 m/S 748 mmHg 64%
    13:00 +10°C° 0 mm 2 m/S 748 mmHg 63%
    14:00 +11°C° 0 mm 1 m/S 748 mmHg 62%
    15:00 +12°C° 0 mm 1 m/S 747 mmHg 61%
    16:00 +11°C° 0 mm 1 m/S 747 mmHg 66%
    17:00 +9°C° 0 mm 1 m/S 748 mmHg 72%
    18:00 +7°C° 0 mm 0 m/S 748 mmHg 78%
    19:00 +7°C° 0 mm 0 m/S 748 mmHg 79%
    20:00 +8°C° 0 mm 1 m/S 748 mmHg 79%
    21:00 +8°C° 0 mm 1 m/S 748 mmHg 80%
    22:00 +8°C° 0 mm 1 m/S 748 mmHg 78%
    23:00 +7°C° 0 mm 2 m/S 747 mmHg 77%
    Mehr zeigen